Weather History for KTEX - April, 2012

Change the Weather History Date:

Monday, April 9, 2012

  Actual Average Record
Temperature  
Mean Temperature 48 °F -  
Max Temperature 60 °F 42 °F 60 °F (2012)
Min Temperature 37 °F 24 °F 17 °F (2005)
Degree Days  
Heating Degree Days 16    
Moisture  
Dew Point 7 °F    
Average Humidity 22    
Maximum Humidity 41    
Minimum Humidity 6    
Precipitation  
Precipitation 0.00 in - - ()
Sea Level Pressure  
Sea Level Pressure 30.32 in    
Wind  
Wind Speed 6 mph (SSE)    
Max Wind Speed 14 mph    
Max Gust Speed 23 mph    
Visibility 10 miles    
Events      
Averages and records for this station are not official NWS values.
T = Trace of Precipitation, MM = Missing Value Source: NWS Daily Summary

Daily Weather History Graph

Daily Weather History Graph

Search for Another Location

Airport or City:

Trip Planner

Search our weather history database for the weather conditions in past years. The results will help you decide how hot, cold, wet, or windy it might be!

Date:

Astronomy

Apr. 09, 2012 Rise Set
Actual Time 6:44 AM MDT 7:42 PM MDT
Civil Twilight 6:17 AM MDT 8:09 PM MDT
Nautical Twilight 5:45 AM MDT 8:41 PM MDT
Astronomical Twilight 5:12 AM MDT 9:14 PM MDT
Moon 11:37 PM MDT (4/9) 8:37 AM MDT (4/9)
Length of Visible Light 13h 52m
Length of Day
12h 58m
Waning Gibbous, 88% of the Moon is Illuminated
Apr 9
Waning Gibbous
Apr 13
Last Quarter
Apr 21
New
Apr 29
First Quarter
May 5
Full

Hourly Weather History & Observations

Time (MDT) Temp. Windchill Dew Point Humidity Pressure Visibility Wind Dir Wind Speed Gust Speed Precip Events Conditions
12:15 AM 41.0 °F 37.1 °F 14.0 °F 33% 30.37 in 10.0 mi ESE 5.8 mph - N/A   Clear
12:35 AM 41.0 °F 36.4 °F 14.0 °F 33% 30.37 in 10.0 mi SE 6.9 mph - N/A   Clear
12:55 AM 39.2 °F 34.2 °F 14.0 °F 36% 30.37 in 10.0 mi SE 6.9 mph - N/A   Clear
1:15 AM 39.2 °F 35.0 °F 14.0 °F 36% 30.37 in 10.0 mi SE 5.8 mph - N/A   Clear
1:35 AM 41.0 °F 36.4 °F 12.2 °F 31% 30.37 in 10.0 mi SE 6.9 mph - N/A   Scattered Clouds
1:55 AM 41.0 °F 37.1 °F 12.2 °F 31% 30.36 in 10.0 mi ESE 5.8 mph - N/A   Mostly Cloudy
2:15 AM 39.2 °F 34.2 °F 14.0 °F 36% 30.35 in 10.0 mi SE 6.9 mph - N/A   Overcast
2:35 AM 39.2 °F 34.2 °F 14.0 °F 36% 30.35 in 10.0 mi ESE 6.9 mph - N/A   Overcast
2:55 AM 39.2 °F 35.0 °F 14.0 °F 36% 30.35 in 10.0 mi SE 5.8 mph - N/A   Overcast
3:15 AM 41.0 °F 36.4 °F 12.2 °F 31% 30.34 in 10.0 mi ESE 6.9 mph - N/A   Mostly Cloudy
3:35 AM 41.0 °F 37.1 °F 14.0 °F 33% 30.34 in 10.0 mi SE 5.8 mph - N/A   Overcast
3:55 AM 41.0 °F - 14.0 °F 33% 30.34 in 10.0 mi Calm Calm - N/A   Mostly Cloudy
4:15 AM 39.2 °F 33.6 °F 14.0 °F 36% 30.34 in 10.0 mi ESE 8.1 mph - N/A   Clear
4:35 AM 39.2 °F 34.2 °F 14.0 °F 36% 30.33 in 10.0 mi SE 6.9 mph - N/A   Scattered Clouds
4:55 AM 39.2 °F 34.2 °F 14.0 °F 36% 30.33 in 10.0 mi SE 6.9 mph - N/A   Scattered Clouds
5:15 AM 37.4 °F 32.8 °F 14.0 °F 38% 30.33 in 10.0 mi ESE 5.8 mph - N/A   Clear
5:35 AM 39.2 °F 35.0 °F 14.0 °F 36% 30.33 in 10.0 mi ESE 5.8 mph - N/A   Clear
5:55 AM 37.4 °F 32.8 °F 15.8 °F 41% 30.33 in 10.0 mi ESE 5.8 mph - N/A   Clear
6:15 AM 37.4 °F 32.1 °F 15.8 °F 41% 30.34 in 10.0 mi ESE 6.9 mph - N/A   Clear
6:35 AM 37.4 °F 32.1 °F 14.0 °F 38% 30.34 in 10.0 mi SE 6.9 mph - N/A   Clear
6:55 AM 37.4 °F 32.1 °F 15.8 °F 41% 30.35 in 10.0 mi ESE 6.9 mph - N/A   Clear
7:15 AM 37.4 °F 32.8 °F 15.8 °F 41% 30.35 in 10.0 mi SE 5.8 mph - N/A   Clear
7:55 AM 39.2 °F 35.0 °F 14.0 °F 36% 30.37 in 10.0 mi SE 5.8 mph - N/A   Clear
8:15 AM 41.0 °F 39.0 °F 15.8 °F 36% 30.37 in 10.0 mi ESE 3.5 mph - N/A   Clear
8:35 AM 42.8 °F 41.1 °F 15.8 °F 34% 30.36 in 10.0 mi ESE 3.5 mph - N/A   Clear
8:55 AM 44.6 °F 42.2 °F 14.0 °F 29% 30.36 in 10.0 mi ESE 4.6 mph - N/A   Clear
9:15 AM 46.4 °F 45.2 °F 15.8 °F 29% 30.35 in 10.0 mi ESE 3.5 mph - N/A   Clear
9:35 AM 50.0 °F - 14.0 °F 24% 30.35 in 10.0 mi Calm Calm - N/A   Clear
9:55 AM 51.8 °F - 15.8 °F 24% 30.35 in 10.0 mi Calm Calm - N/A   Clear
10:15 AM 53.6 °F - 6.8 °F 15% 30.35 in 10.0 mi Calm Calm - N/A   Clear
10:35 AM 53.6 °F - 5.0 °F 14% 30.35 in 10.0 mi Calm Calm - N/A   Clear
10:55 AM 55.4 °F - 6.8 °F 14% 30.35 in 10.0 mi Calm Calm - N/A   Clear
11:15 AM 57.2 °F - 8.6 °F 14% 30.35 in 10.0 mi ENE 4.6 mph - N/A   Clear
11:55 AM 57.2 °F - 5.0 °F 12% 30.34 in 10.0 mi SW 6.9 mph - N/A   Clear
12:15 PM 57.2 °F - 5.0 °F 12% 30.33 in 10.0 mi SSE 3.5 mph - N/A   Clear
12:35 PM 59.0 °F - 3.2 °F 11% 30.33 in 10.0 mi Calm Calm - N/A   Mostly Cloudy
12:55 PM 59.0 °F - 3.2 °F 11% 30.32 in 10.0 mi South 8.1 mph - N/A   Mostly Cloudy
1:15 PM 60.8 °F - 5.0 °F 11% 30.31 in 10.0 mi WSW 8.1 mph - N/A   Mostly Cloudy
1:55 PM 60.8 °F - 3.2 °F 10% 30.30 in 10.0 mi South 13.8 mph 18.4 mph N/A   Mostly Cloudy
2:15 PM 60.8 °F - 3.2 °F 10% 30.30 in 10.0 mi WSW 9.2 mph 20.7 mph N/A   Scattered Clouds
2:35 PM 60.8 °F - 1.4 °F 9% 30.30 in 10.0 mi SSW 6.9 mph 17.3 mph N/A   Clear
2:55 PM 60.8 °F - -0.4 °F 8% 30.30 in 10.0 mi West 6.9 mph 18.4 mph N/A   Clear
3:15 PM 60.8 °F - -0.4 °F 8% 30.29 in 10.0 mi SW 11.5 mph 23.0 mph N/A   Scattered Clouds
3:35 PM 60.8 °F - -0.4 °F 8% 30.28 in 10.0 mi SSW 10.4 mph 18.4 mph N/A   Clear
3:55 PM 60.8 °F - -4.0 °F 7% 30.28 in 10.0 mi WSW 10.4 mph 20.7 mph N/A   Clear
4:35 PM 60.8 °F - -0.4 °F 8% 30.27 in 10.0 mi West 11.5 mph 18.4 mph N/A   Clear
5:15 PM 60.8 °F - -4.0 °F 7% 30.26 in 10.0 mi West 13.8 mph - N/A   Clear
5:35 PM 60.8 °F - -5.8 °F 7% 30.27 in 10.0 mi West 12.7 mph 18.4 mph N/A   Clear
5:55 PM 60.8 °F - -7.6 °F 6% 30.26 in 10.0 mi West 10.4 mph - N/A   Clear
6:15 PM 59.0 °F - -5.8 °F 7% 30.26 in 10.0 mi West 10.4 mph 16.1 mph N/A   Clear
6:35 PM 59.0 °F - -5.8 °F 7% 30.27 in 10.0 mi WSW 6.9 mph - N/A   Clear
6:55 PM 59.0 °F - -5.8 °F 7% 30.26 in 7.0 mi West 10.4 mph - N/A   Clear
7:15 PM 57.2 °F - -4.0 °F 8% 30.26 in 10.0 mi West 8.1 mph - N/A   Clear
7:35 PM 55.4 °F - -4.0 °F 9% 30.26 in 10.0 mi West 8.1 mph - N/A   Clear
7:55 PM 53.6 °F - -4.0 °F 9% 30.27 in 10.0 mi WSW 3.5 mph - N/A   Clear
8:15 PM 53.6 °F - -4.0 °F 9% 30.28 in 10.0 mi Calm Calm - N/A   Clear
8:35 PM 51.8 °F - -2.2 °F 11% 30.29 in 10.0 mi Calm Calm - N/A   Clear
8:55 PM 51.8 °F - -0.4 °F 12% 30.30 in 10.0 mi Calm Calm - N/A   Clear
9:15 PM 50.0 °F - -0.4 °F 13% 30.30 in 10.0 mi Calm Calm - N/A   Clear
9:35 PM 48.2 °F - 3.2 °F 16% 30.31 in 10.0 mi SE 4.6 mph - N/A   Clear
9:55 PM 46.4 °F 42.4 °F 6.8 °F 20% 30.31 in 10.0 mi East 8.1 mph - N/A   Clear
10:15 PM 46.4 °F 42.9 °F 6.8 °F 20% 30.31 in 10.0 mi ESE 6.9 mph - N/A   Clear
10:55 PM 42.8 °F 38.0 °F 8.6 °F 25% 30.31 in 10.0 mi SE 8.1 mph - N/A   Clear
11:15 PM 42.8 °F 38.6 °F 10.4 °F 27% 30.31 in 10.0 mi SE 6.9 mph - N/A   Clear
11:35 PM 42.8 °F 38.6 °F 8.6 °F 25% 30.31 in 10.0 mi ESE 6.9 mph - N/A   Clear
11:55 PM 42.8 °F 38.0 °F 10.4 °F 27% 30.31 in 10.0 mi SE 8.1 mph - N/A   Clear